sat.trackr.live / text

‹ back to catalog

STARLINK-30108

NORAD 56299 · 2023-056P

PAYLOAD ACTIVE UNKNOWN

§ Identity

Operator
Country
US
Launch date
2023-04-19
Launch site
AFETR
Launch vehicle
Mass (kg)
RCS (m²)

Purposes: comms

External: N2YO · Heavens-Above · Gunter

§ Orbital elements

Epoch: 2026-09-20T02:50:38.767200Z

Period
94.27 min
Inclination
43.0011°
Eccentricity
0.0001297
Mean motion
15.27577444 rev/d
Perigee alt
482.2 km
Apogee alt
483.9 km
Semi-major
6,861.2 km
B*
5.3460e-6
RAAN
179.6799°
Arg perigee
269.7738°
Mean anomaly
90.2965°
Rev number
18,996

§ Raw data

STARLINK-301081 56299U 23056P   26263.11850425 -.00000115  00000+0  53460-5 0  99922 56299  43.0011 179.6799 0001297 269.7738  90.2965 15.27577444189961

JSON: /api/v1/satellites/56299 · /tle

For live sub-satellite position, see the globe view (requires WebGL).

§ Visibility from observer

Set your observer location to see the next 7 days of passes ≥ 10°. The values pass through the URL so the page stays shareable.

No JS? Fill the form by hand. The geolocation button needs JavaScript.